Location: Cedar Ridge
(38.0658°N, 120.2769°W)
Time: 14:37:51
(UTC+00:00)

Daily predictions for brighter satellites

Satellite Brightness Start Highest point End
(mag) Time Altitude Azimuth Time Altitude Azimuth Time Altitude Azimuth
CZ-4C R/B 4.3 12:02:37 10° NW 12:03:31 10° NNW 12:04:26 10° NNW
Cosmos 1867 3.7 12:03:57 21° SSW 12:07:41 73° ESE 12:13:10 10° NE
Cosmos 1666 2.4 12:09:36 10° NNW 12:12:49 50° W 12:12:49 50° W
Cosmos 2322 Rocket 2.1 12:07:43 10° NNW 12:13:21 67° WSW 12:18:55 10° S
Cosmos 1500 4.1 12:10:33 10° NNW 12:12:20 25° NW 12:12:20 25° NW
DELTA 2 R/B (1) 3.6 12:12:36 27° W 12:15:41 78° N 12:21:15 10° E
ARGOS 4.4 12:15:32 10° NNE 12:20:36 41° E 12:25:38 10° SSE
Cosmos 2219 Rocket 2.8 12:17:24 10° NNW 12:22:58 59° ENE 12:28:29 10° SE
NOSS 3-2 (C) 4.1 12:19:01 10° S 12:23:44 44° ESE 12:29:04 10° NE
Cosmos 1862 3.7 12:21:01 10° NNW 12:24:28 35° W 12:26:08 23° SW
Cosmos 1758 Rocket 3.9 12:20:30 10° NNW 12:24:39 41° W 12:28:43 10° SSW
Envisat 4.3 12:21:32 10° NNW 12:25:12 21° WNW 12:26:13 19° W
Cosmos 468 Rocket 4.0 12:20:17 10° NNW 12:25:31 89° ENE 12:30:47 10° SSE
Chandra Rocket (1) 3.4 12:23:50 19° SSW 12:25:47 28° SSE 12:32:48 10° ESE
Cosmos 2333 Rocket 2.1 12:20:51 10° NNW 12:26:32 69° WSW 12:32:09 10° S
Cosmos 1602 3.4 12:26:31 10° N 12:30:03 88° E 12:33:33 10° S
Uosat 12 SS-18 rocket 4.5 12:25:47 15° SW 12:30:35 75° WNW 12:35:26 10° NNE
Cosmos 2058 Rocket 4.4 12:28:41 10° SSE 12:32:49 42° E 12:37:01 10° NNE
Cosmos 540 Rocket 3.4 12:28:55 10° NNW 12:33:58 64° WSW 12:39:01 10° S
SL-16 R/B 3.1 12:29:42 10° NW 12:34:17 26° WSW 12:38:50 10° SSW
YAOGAN 6 3.9 12:33:50 10° NNW 12:35:52 18° WNW 12:35:52 18° WNW
Cosmos 1818 3.6 12:30:48 10° NW 12:36:07 55° WSW 12:41:23 10° SSE
Cosmos 1484 Rocket 2.7 12:34:55 10° NNE 12:38:39 80° ESE 12:42:23 10° S
Thor Agena Rocket 3.6 12:34:00 10° N 12:39:04 62° WNW 12:44:10 10° SSW
IRS-1D 4.1 12:37:06 10° N 12:42:04 41° WNW 12:47:01 10° SW
Cosmos 1763 Rocket 3.9 12:39:07 10° NW 12:43:49 37° WSW 12:48:32 10° SSW
Cosmos 1726 Rocket 3.5 12:39:56 10° SSW 12:44:13 67° W 12:48:32 10° N
CZ-2C R/B 3.6 12:44:26 10° NNW 12:48:05 22° WNW 12:50:53 13° WSW
Cosmos 1850 Rocket 4.3 12:43:23 10° S 12:48:35 73° ESE 12:53:52 10° NNE
COSMOS 2455 4.3 12:46:26 13° W 12:50:03 21° NW 12:54:34 10° N
Cosmos 1939 Rocket 2.8 12:46:47 10° N 12:50:44 67° WNW 12:54:39 10° SSW
Cosmos 1934 Rocket 4.4 12:46:16 10° NNW 12:52:04 40° W 12:57:54 10° SSW
Cosmos 2151 2.8 12:50:32 10° N 12:54:40 79° W 12:58:47 10° S
Cosmos 2285 Rocket 4.2 12:48:53 10° SW 12:55:08 55° WNW 13:01:24 10° N
Cosmos 1378 4.2 12:53:17 10° SSE 12:56:12 39° E 12:59:08 10° NNE
Cosmos 2333 4.4 12:52:15 10° NNW 12:57:42 50° WSW 13:03:05 10° S
NOSS 3-2 (A) 3.7 12:54:54 11° WSW 12:59:28 40° NW 13:05:03 10° NNE
SME Rocket 2.9 12:55:53 10° N 12:59:35 59° WNW 13:03:31 10° SSW
Cosmos 1238 Rocket 4.5 12:57:39 10° S 13:02:56 57° E 13:08:33 10° NNE
COSMO-SKYMED 1 3.5 12:59:12 10° SSE 13:03:25 55° ENE 13:07:40 10° N
Atlas Centaur 2 3.4 12:59:18 10° SW 13:04:45 38° SSE 13:11:23 10° ESE
Cosmos 1825 Rocket 4.0 13:01:33 10° NNW 13:05:41 40° W 13:09:46 10° SSW
Cosmos 1812 3.8 13:04:31 10° SW 13:07:19 22° WNW 13:10:08 10° NNW
Cosmos 1076 Rocket 3.5 13:04:37 10° N 13:08:53 86° E 13:13:07 10° S
CBERS-1 4.1 13:04:07 10° N 13:09:09 62° WNW 13:14:10 10° SSW
COSMOS 2428 3.3 13:04:14 10° NNW 13:09:57 63° ENE 13:15:36 10° SSE
CENTAUR R/B 3.7 13:05:58 10° W 13:10:42 25° NW 13:16:16 10° NNE
Tiangong -0.2 13:09:14 10° WSW 13:11:08 15° SW 13:13:02 10° S
GP-B 3.2 13:07:53 10° SSW 13:12:12 55° W 13:16:31 10° NNW
Cosmos 1727 Rocket 4.0 13:07:14 10° S 13:13:28 76° W 13:19:41 10° N
